4209580001,1999,10,20,00,99
4209580001,1999,10,20,01,99
4209580001,1999,10,20,02,99
4209580001,1999,10,20,03,99
4209580001,1999,10,20,04,99
4209580001,1999,10,20,05,99
4209580001,1999,10,20,06,99
4209580001,1999,10,20,07,99
4209580001,1999,10,20,08,99
4209580001,1999,10,20,09,99
4209580001,1999,10,20,10,99
4209580001,1999,10,20,11,99
4209580001,1999,10,20,12,99
4209580001,1999,10,20,13,0.006
4209580001,1999,10,20,14,0.009
4209580001,1999,10,20,15,0.005
4209580001,1999,10,20,16,0.002
4209580001,1999,10,20,17,0.001
4209580001,1999,10,20,18,0
4209580001,1999,10,20,19,0
4209580001,1999,10,20,20,0.001
4209580001,1999,10,20,21,0
4209580001,1999,10,20,22,0.001
4209580001,1999,10,20,23,0.001
4209580001,1999,10,21,00,0.001
4209580001,1999,10,21,01,0.001
4209580001,1999,10,21,02,0.001
4209580001,1999,10,21,03,0.001
4209580001,1999,10,21,04,0.001
4209580001,1999,10,21,05,0.001
4209580001,1999,10,21,06,0.002
4209580001,1999,10,21,07,0.001
4209580001,1999,10,21,08,0.003
4209580001,1999,10,21,09,99
4209580001,1999,10,21,10,0.016
4209580001,1999,10,21,11,0.027
4209580001,1999,10,21,12,0.027
4209580001,1999,10,21,13,0.03
4209580001,1999,10,21,14,0.027
4209580001,1999,10,21,15,0.024
4209580001,1999,10,21,16,0.018
4209580001,1999,10,21,17,0.005
4209580001,1999,10,21,18,0.002
4209580001,1999,10,21,19,0.001
4209580001,1999,10,21,20,0.001
4209580001,1999,10,21,21,0.001
4209580001,1999,10,21,22,0.001
4209580001,1999,10,21,23,0.001
4209580001,1999,10,22,00,0.001
4209580001,1999,10,22,01,0.001
4209580001,1999,10,22,02,0.001
4209580001,1999,10,22,03,0.001
4209580001,1999,10,22,04,0.001
4209580001,1999,10,22,05,0.001
4209580001,1999,10,22,06,0
4209580001,1999,10,22,07,0.001
4209580001,1999,10,22,08,0.007
4209580001,1999,10,22,09,0.015
4209580001,1999,10,22,10,0.024
4209580001,1999,10,22,11,0.037
4209580001,1999,10,22,12,0.041
4209580001,1999,10,22,13,0.041
4209580001,1999,10,22,14,0.037
4209580001,1999,10,22,15,0.031
4209580001,1999,10,22,16,0.015
4209580001,1999,10,22,17,0.003
4209580001,1999,10,22,18,0.001
4209580001,1999,10,22,19,0.001
4209580001,1999,10,22,20,0.023
4209580001,1999,10,22,21,0.022
4209580001,1999,10,22,22,0.009
4209580001,1999,10,22,23,0.016
4209580001,1999,10,23,00,0.01
4209580001,1999,10,23,01,0.003
4209580001,1999,10,23,02,0.001
4209580001,1999,10,23,03,0.001
4209580001,1999,10,23,04,0.002
4209580001,1999,10,23,05,0.004
4209580001,1999,10,23,06,0.002
4209580001,1999,10,23,07,0.01
4209580001,1999,10,23,08,0.013
4209580001,1999,10,23,09,0.012
4209580001,1999,10,23,10,0.013
4209580001,1999,10,23,11,0.015
4209580001,1999,10,23,12,0.018
4209580001,1999,10,23,13,0.02
4209580001,1999,10,23,14,0.02
4209580001,1999,10,23,15,0.019
4209580001,1999,10,23,16,0.02
4209580001,1999,10,23,17,0.018
4209580001,1999,10,23,18,0.012
4209580001,1999,10,23,19,0.011
4209580001,1999,10,23,20,0.013
4209580001,1999,10,23,21,0.01
4209580001,1999,10,23,22,0.002
4209580001,1999,10,23,23,0.006
4209580001,1999,10,24,00,0.007
4209580001,1999,10,24,01,0.008
4209580001,1999,10,24,02,0.004
4209580001,1999,10,24,03,0.006
4209580001,1999,10,24,04,0.002
4209580001,1999,10,24,05,0.001
4209580001,1999,10,24,06,0.001
4209580001,1999,10,24,07,0.003
4209580001,1999,10,24,08,0.009
4209580001,1999,10,24,09,0.011
4209580001,1999,10,24,10,0.013
4209580001,1999,10,24,11,0.014
4209580001,1999,10,24,12,0.011
4209580001,1999,10,24,13,0.015
4209580001,1999,10,24,14,0.021
4209580001,1999,10,24,15,0.022
4209580001,1999,10,24,16,0.018
4209580001,1999,10,24,17,0.022
4209580001,1999,10,24,18,0.016
4209580001,1999,10,24,19,0.022
4209580001,1999,10,24,20,0.021
4209580001,1999,10,24,21,0.021
4209580001,1999,10,24,22,0.003
4209580001,1999,10,24,23,0.015
4209580001,1999,10,25,00,0.019
4209580001,1999,10,25,01,0.021
4209580001,1999,10,25,02,0.015
4209580001,1999,10,25,03,0.023
4209580001,1999,10,25,04,0.021
4209580001,1999,10,25,05,0.021
4209580001,1999,10,25,06,0.003
4209580001,1999,10,25,07,0.003
4209580001,1999,10,25,08,0.006
4209580001,1999,10,25,09,0.016
4209580001,1999,10,25,10,0.023
4209580001,1999,10,25,11,0.026
4209580001,1999,10,25,12,0.027
4209580001,1999,10,25,13,0.029
4209580001,1999,10,25,14,0.028
4209580001,1999,10,25,15,0.02
4209580001,1999,10,25,16,0.014
4209580001,1999,10,25,17,0.004
4209580001,1999,10,25,18,0.001
4209580001,1999,10,25,19,0
4209580001,1999,10,25,20,0
4209580001,1999,10,25,21,0
4209580001,1999,10,25,22,0
4209580001,1999,10,25,23,0
4209580001,1999,10,26,00,0
4209580001,1999,10,26,01,0
4209580001,1999,10,26,02,0
4209580001,1999,10,26,03,0
4209580001,1999,10,26,04,0
4209580001,1999,10,26,05,0
4209580001,1999,10,26,06,0.001
4209580001,1999,10,26,07,0
4209580001,1999,10,26,08,99
4209580001,1999,10,26,09,0.006
4209580001,1999,10,26,10,0.008
4209580001,1999,10,26,11,0.015
4209580001,1999,10,26,12,0.02
4209580001,1999,10,26,13,0.02
4209580001,1999,10,26,14,0.019
4209580001,1999,10,26,15,0.018
4209580001,1999,10,26,16,0.011
4209580001,1999,10,26,17,0
4209580001,1999,10,26,18,0
4209580001,1999,10,26,19,0
4209580001,1999,10,26,20,0
4209580001,1999,10,26,21,0
4209580001,1999,10,26,22,0
4209580001,1999,10,26,23,0
4209580001,1999,10,27,00,0
4209580001,1999,10,27,01,0
4209580001,1999,10,27,02,0
4209580001,1999,10,27,03,0
4209580001,1999,10,27,04,0
4209580001,1999,10,27,05,0
4209580001,1999,10,27,06,0
4209580001,1999,10,27,07,0
4209580001,1999,10,27,08,0.002
4209580001,1999,10,27,09,0.01
4209580001,1999,10,27,10,0.017
4209580001,1999,10,27,11,0.022
4209580001,1999,10,27,12,0.02
4209580001,1999,10,27,13,0.019
4209580001,1999,10,27,14,0.019
4209580001,1999,10,27,15,0.017
4209580001,1999,10,27,16,0.016
4209580001,1999,10,27,17,0.014
4209580001,1999,10,27,18,0.016
4209580001,1999,10,27,19,0.019
4209580001,1999,10,27,20,0.014
4209580001,1999,10,27,21,0.005
4209580001,1999,10,27,22,0
4209580001,1999,10,27,23,0
4209580001,1999,10,28,00,0.002
4209580001,1999,10,28,01,0
4209580001,1999,10,28,02,0
4209580001,1999,10,28,03,0
4209580001,1999,10,28,04,0
4209580001,1999,10,28,05,0
4209580001,1999,10,28,06,0
4209580001,1999,10,28,07,0.001
4209580001,1999,10,28,08,0.008
4209580001,1999,10,28,09,0.009
4209580001,1999,10,28,10,0.01
4209580001,1999,10,28,11,0.015
4209580001,1999,10,28,12,0.019
4209580001,1999,10,28,13,0.02
4209580001,1999,10,28,14,0.02
4209580001,1999,10,28,15,0.017
4209580001,1999,10,28,16,0.007
4209580001,1999,10,28,17,0
4209580001,1999,10,28,18,0
4209580001,1999,10,28,19,0
4209580001,1999,10,28,20,0
4209580001,1999,10,28,21,0
4209580001,1999,10,28,22,0
4209580001,1999,10,28,23,0
4209580001,1999,10,29,00,0
4209580001,1999,10,29,01,0
4209580001,1999,10,29,02,0
4209580001,1999,10,29,03,0
4209580001,1999,10,29,04,0
4209580001,1999,10,29,05,0
4209580001,1999,10,29,06,0
4209580001,1999,10,29,07,0
4209580001,1999,10,29,08,0
4209580001,1999,10,29,09,0.002
4209580001,1999,10,29,10,0.004
4209580001,1999,10,29,11,0.01
4209580001,1999,10,29,12,0.014
4209580001,1999,10,29,13,0.016
4209580001,1999,10,29,14,0.017
4209580001,1999,10,29,15,0.013
4209580001,1999,10,29,16,0.001
4209580001,1999,10,29,17,0
4209580001,1999,10,29,18,0
4209580001,1999,10,29,19,0
4209580001,1999,10,29,20,0
4209580001,1999,10,29,21,0
4209580001,1999,10,29,22,0
4209580001,1999,10,29,23,0
4209580001,1999,10,30,00,0
4209580001,1999,10,30,01,0
4209580001,1999,10,30,02,0
4209580001,1999,10,30,03,0
4209580001,1999,10,30,04,0
4209580001,1999,10,30,05,0
4209580001,1999,10,30,06,0
4209580001,1999,10,30,07,0
4209580001,1999,10,30,08,0
4209580001,1999,10,30,09,0.002
4209580001,1999,10,30,10,0.005
4209580001,1999,10,30,11,0.005
4209580001,1999,10,30,12,0.012
4209580001,1999,10,30,13,0.024
4209580001,1999,10,30,14,0.033
4209580001,1999,10,30,15,0.025
4209580001,1999,10,30,16,0.012
4209580001,1999,10,30,17,0.001
4209580001,1999,10,30,18,0
4209580001,1999,10,30,19,0
4209580001,1999,10,30,20,0
4209580001,1999,10,30,21,0
4209580001,1999,10,30,22,0
4209580001,1999,10,30,23,0
4209580001,1999,10,31,00,0
4209580001,1999,10,31,01,0
4209580001,1999,10,31,02,0
4209580001,1999,10,31,03,0
4209580001,1999,10,31,04,0
4209580001,1999,10,31,05,0
4209580001,1999,10,31,06,0
4209580001,1999,10,31,07,0
4209580001,1999,10,31,08,0.012
4209580001,1999,10,31,09,0.021
4209580001,1999,10,31,10,0.037
4209580001,1999,10,31,11,0.047
4209580001,1999,10,31,12,0.051
4209580001,1999,10,31,13,0.054
4209580001,1999,10,31,14,0.05
4209580001,1999,10,31,15,0.038
4209580001,1999,10,31,16,0.016
4209580001,1999,10,31,17,0.006
4209580001,1999,10,31,18,0
4209580001,1999,10,31,19,0
4209580001,1999,10,31,20,0
4209580001,1999,10,31,21,0
4209580001,1999,10,31,22,0.001
4209580001,1999,10,31,23,0
